Location: Santiago
(33.4378°S, 70.6505°W)
Time: 09:03:34
(UTC+00:00)

ISS - Pass Details

Date: 05 October 2024
Orbit: 412 x 424 km, 51.6° (Epoch: 09 October)

Event Time Altitude Azimuth Distance (km) Brightness Sun altitude
Rises 09:24:43 0° 217° (SW) 2,400 -0.1 -10.9°
Reaches altitude 10° 09:27:02 10° 205° (SSW) 1,526 -1.0 -10.4°
Maximum altitude 09:30:03 28° 143° (SE) 827 -1.7 -9.8°
Drops below altitude 10° 09:33:02 10° 81° (E) 1,506 0.3 -9.2°
Sets 09:35:18 0° 69° (ENE) 2,362 1.1 -8.7°
